Location: ?????
(30.2541°N, 31.0910°E)
Time: 08:53:37
(UTC+00:00)

CENTAUR R/B - Pass Details

Date: 27 September 2022
Orbit: 705 x 1482 km, 63.4° (Epoch: 24 November)

Event Time Altitude Azimuth Distance (km) Brightness Sun altitude
Rises 03:14:36 0° 223° (SW) 3,195 4.8 -7.7°
Reaches altitude 10° 03:16:54 10° 229° (SW) 2,337 4.0 -7.3°
Maximum altitude 03:22:04 49° 304° (NW) 1,119 2.6 -6.1°
Drops below altitude 10° 03:28:13 10° 19° (NNE) 2,780 5.2 -4.8°
Sets 03:31:12 0° 24° (NNE) 3,865 6.0 -4.2°
